Terug naar catalogus

SL-12 R/B(2)

ActiefMEO
NORAD 36118·ROCKET BODY·🇷🇺 Russia

Gelanceerd Dec 14, 2009 vanaf Baikonur Cosmodrome

Loading…

Volgende Passages (komende 24 uur)

TLE

VersSource: Space-Track

Epoch: Sep 12, 2026, 01:21 UTC

1 36118U 09070H   26255.05687399 -.00000004  00000-0  00000-0 0  9997
2 36118  65.0673  67.3342 0028723 203.5403 335.6499  2.13353019130440

Volg SL-12 R/B(2) in realtime met AllMySat

Download on the App Store